When you browse on this site, cookies collect data to enhance your experience and personalize the content and advertising you see.
Visit our Privacy Policy to learn more. By continuing to use the site, you agree to this use of cookies and data.
  • In Germany
  • List of Countries
  • For 7 days
  • Water Temperature
  • Satellite Maps
  • Weather Map
  • Weather Widgets
  • user-avatar
    Login

    Hourly Weather Tibissa

    Today, 21 July, Sunday

    Time Temperature Precipitation Wind Pressure Humidity
    00:00 +28°C° 0 mm 1 mps 688 mmHg 42%
    01:00 +25°C° 0 mm 0 mps 688 mmHg 44%
    02:00 +27°C° 0 mm 1 mps 688 mmHg 45%
    03:00 +26°C° 0 mm 1 mps 688 mmHg 45%
    04:00 +26°C° 0 mm 1 mps 687 mmHg 46%
    05:00 +27°C° 0 mm 1 mps 688 mmHg 44%
    06:00 +27°C° 0 mm 1 mps 688 mmHg 42%
    07:00 +28°C° 0 mm 1 mps 688 mmHg 40%
    08:00 +30°C° 0 mm 2 mps 689 mmHg 36%
    09:00 +32°C° 0 mm 2 mps 689 mmHg 31%
    10:00 +34°C° 0 mm 2 mps 690 mmHg 27%
    11:00 +35°C° 0 mm 3 mps 690 mmHg 25%
    12:00 +36°C° 0 mm 3 mps 690 mmHg 24%
    13:00 +37°C° 0 mm 4 mps 690 mmHg 23%
    14:00 +37°C° 0 mm 4 mps 689 mmHg 22%
    15:00 +37°C° 0 mm 4 mps 689 mmHg 21%
    16:00 +37°C° 0 mm 4 mps 689 mmHg 21%
    17:00 +36°C° 0 mm 4 mps 689 mmHg 22%
    18:00 +35°C° 0 mm 5 mps 689 mmHg 23%
    19:00 +35°C° 0 mm 5 mps 689 mmHg 25%
    20:00 +33°C° 0 mm 5 mps 689 mmHg 31%
    21:00 +30°C° 0 mm 4 mps 689 mmHg 38%
    22:00 +28°C° 0 mm 4 mps 689 mmHg 45%
    23:00 +27°C° 0 mm 3 mps 689 mmHg 47%

    Tomorrow, 22 July, Monday

    Time Temperature Precipitation Wind Pressure Humidity
    00:00 +26°C° 0 mm 2 mps 689 mmHg 50%
    01:00 +25°C° 0 mm 1 mps 689 mmHg 52%
    02:00 +25°C° 0 mm 1 mps 689 mmHg 52%
    03:00 +24°C° 0 mm 1 mps 689 mmHg 53%
    04:00 +24°C° 0 mm 1 mps 688 mmHg 53%
    05:00 +24°C° 0 mm 1 mps 689 mmHg 49%
    06:00 +24°C° 0 mm 1 mps 689 mmHg 45%
    07:00 +25°C° 0 mm 1 mps 689 mmHg 41%
    08:00 +26°C° 0 mm 1 mps 690 mmHg 38%
    09:00 +28°C° 0 mm 1 mps 690 mmHg 35%
    10:00 +29°C° 0 mm 2 mps 690 mmHg 31%
    11:00 +31°C° 0 mm 2 mps 690 mmHg 28%
    12:00 +33°C° 0 mm 3 mps 690 mmHg 24%
    13:00 +34°C° 0 mm 4 mps 690 mmHg 21%
    14:00 +34°C° 0 mm 4 mps 690 mmHg 19%
    15:00 +35°C° 0 mm 4 mps 690 mmHg 17%
    16:00 +35°C° 0 mm 4 mps 689 mmHg 15%
    17:00 +34°C° 0 mm 4 mps 689 mmHg 16%
    18:00 +34°C° 0 mm 4 mps 689 mmHg 16%
    19:00 +33°C° 0 mm 4 mps 689 mmHg 17%
    20:00 +30°C° 0 mm 4 mps 689 mmHg 23%
    21:00 +28°C° 0 mm 4 mps 689 mmHg 28%
    22:00 +26°C° 0 mm 4 mps 689 mmHg 34%
    23:00 +25°C° 0 mm 3 mps 689 mmHg 37%

    Day after tomorrow, 23 July, Tuesday

    Time Temperature Precipitation Wind Pressure Humidity
    00:00 +25°C° 0 mm 2 mps 688 mmHg 40%
    01:00 +24°C° 0 mm 1 mps 688 mmHg 43%
    02:00 +23°C° 0 mm 1 mps 688 mmHg 44%
    03:00 +23°C° 0 mm 1 mps 688 mmHg 45%
    04:00 +20°C° 0 mm 0 mps 687 mmHg 45%
    05:00 +21°C° 0 mm 0 mps 688 mmHg 42%
    06:00 +22°C° 0 mm 0 mps 688 mmHg 38%
    07:00 +23°C° 0 mm 0 mps 688 mmHg 35%
    08:00 +27°C° 0 mm 1 mps 688 mmHg 31%
    09:00 +28°C° 0 mm 1 mps 689 mmHg 28%
    10:00 +29°C° 0 mm 2 mps 689 mmHg 24%
    11:00 +31°C° 0 mm 2 mps 689 mmHg 21%
    12:00 +32°C° 0 mm 2 mps 689 mmHg 18%
    13:00 +34°C° 0 mm 2 mps 689 mmHg 15%
    14:00 +34°C° 0 mm 2 mps 688 mmHg 14%
    15:00 +35°C° 0 mm 3 mps 688 mmHg 13%
    16:00 +35°C° 0 mm 3 mps 687 mmHg 12%
    17:00 +35°C° 0 mm 3 mps 687 mmHg 13%
    18:00 +34°C° 0 mm 3 mps 687 mmHg 13%
    19:00 +34°C° 0 mm 4 mps 687 mmHg 14%
    20:00 +32°C° 0 mm 4 mps 687 mmHg 16%
    21:00 +30°C° 0 mm 4 mps 687 mmHg 18%
    22:00 +28°C° 0 mm 4 mps 688 mmHg 20%
    23:00 +27°C° 0 mm 3 mps 687 mmHg 22%

    24 July, Wednesday

    Time Temperature Precipitation Wind Pressure Humidity
    00:00 +27°C° 0 mm 3 mps 687 mmHg 23%
    01:00 +26°C° 0 mm 3 mps 687 mmHg 25%
    02:00 +25°C° 0 mm 3 mps 686 mmHg 26%
    03:00 +25°C° 0 mm 2 mps 686 mmHg 27%
    04:00 +24°C° 0 mm 2 mps 686 mmHg 28%
    05:00 +25°C° 0 mm 2 mps 686 mmHg 27%
    06:00 +26°C° 0 mm 2 mps 686 mmHg 25%
    07:00 +27°C° 0 mm 2 mps 687 mmHg 24%
    08:00 +28°C° 0 mm 2 mps 687 mmHg 22%
    09:00 +30°C° 0 mm 3 mps 688 mmHg 20%
    10:00 +33°C° 0 mm 3 mps 688 mmHg 18%
    11:00 +34°C° 0 mm 3 mps 688 mmHg 17%
    12:00 +35°C° 0 mm 3 mps 688 mmHg 16%
    13:00 +36°C° 0 mm 3 mps 688 mmHg 15%
    14:00 +36°C° 0 mm 3 mps 687 mmHg 15%
    15:00 +36°C° 0 mm 3 mps 687 mmHg 15%
    16:00 +37°C° 0 mm 3 mps 687 mmHg 14%
    17:00 +36°C° 0 mm 3 mps 687 mmHg 16%
    18:00 +35°C° 0 mm 4 mps 686 mmHg 17%
    19:00 +34°C° 0 mm 4 mps 686 mmHg 18%
    20:00 +33°C° 0 mm 3 mps 686 mmHg 21%
    21:00 +30°C° 0 mm 3 mps 686 mmHg 23%
    22:00 +29°C° 0 mm 2 mps 687 mmHg 25%
    23:00 +28°C° 0 mm 2 mps 686 mmHg 26%

    25 July, Thursday

    Time Temperature Precipitation Wind Pressure Humidity
    00:00 +28°C° 0 mm 3 mps 686 mmHg 27%
    01:00 +27°C° 0 mm 3 mps 686 mmHg 27%
    02:00 +27°C° 0 mm 3 mps 686 mmHg 28%
    03:00 +26°C° 0 mm 2 mps 686 mmHg 29%
    04:00 +25°C° 0 mm 2 mps 685 mmHg 30%
    05:00 +26°C° 0 mm 2 mps 686 mmHg 29%
    06:00 +27°C° 0 mm 2 mps 686 mmHg 28%
    07:00 +27°C° 0 mm 2 mps 687 mmHg 27%
    08:00 +29°C° 0 mm 2 mps 687 mmHg 25%
    09:00 +31°C° 0 mm 2 mps 687 mmHg 22%
    10:00 +34°C° 0 mm 2 mps 688 mmHg 20%
    11:00 +35°C° 0 mm 3 mps 688 mmHg 18%
    12:00 +36°C° 0 mm 3 mps 688 mmHg 17%
    13:00 +37°C° 0 mm 4 mps 688 mmHg 15%
    14:00 +37°C° 0 mm 4 mps 687 mmHg 16%
    15:00 +37°C° 0 mm 4 mps 687 mmHg 16%
    16:00 +37°C° 0 mm 4 mps 686 mmHg 16%
    17:00 +37°C° 0 mm 4 mps 686 mmHg 16%
    18:00 +36°C° 0 mm 4 mps 686 mmHg 17%
    19:00 +36°C° 0 mm 4 mps 686 mmHg 17%
    20:00 +34°C° 0 mm 3 mps 686 mmHg 21%
    21:00 +31°C° 0 mm 3 mps 686 mmHg 25%
    22:00 +30°C° 0 mm 2 mps 686 mmHg 28%
    23:00 +29°C° 0 mm 1 mps 686 mmHg 30%

    26 July, Friday

    Time Temperature Precipitation Wind Pressure Humidity
    00:00 +28°C° 0 mm 1 mps 686 mmHg 31%
    01:00 +28°C° 0 mm 1 mps 685 mmHg 32%
    02:00 +27°C° 0 mm 2 mps 685 mmHg 32%
    03:00 +27°C° 0 mm 2 mps 685 mmHg 32%
    04:00 +26°C° 0 mm 2 mps 685 mmHg 33%
    05:00 +27°C° 0 mm 3 mps 685 mmHg 31%
    06:00 +28°C° 0 mm 3 mps 685 mmHg 30%
    07:00 +29°C° 0 mm 3 mps 686 mmHg 28%
    08:00 +31°C° 0 mm 3 mps 686 mmHg 25%
    09:00 +34°C° 0 mm 4 mps 687 mmHg 21%
    10:00 +36°C° 0 mm 4 mps 687 mmHg 18%
    11:00 +37°C° 0 mm 5 mps 687 mmHg 17%
    12:00 +37°C° 0 mm 5 mps 687 mmHg 16%
    13:00 +39°C° 0 mm 5 mps 686 mmHg 14%
    14:00 +39°C° 0 mm 5 mps 686 mmHg 15%
    15:00 +38°C° 0 mm 4 mps 686 mmHg 15%
    16:00 +37°C° 0 mm 4 mps 685 mmHg 15%
    17:00 +36°C° 0 mm 5 mps 685 mmHg 18%
    18:00 +35°C° 0 mm 7 mps 685 mmHg 21%
    19:00 +34°C° 0 mm 8 mps 685 mmHg 24%
    20:00 +32°C° 0 mm 6 mps 685 mmHg 28%
    21:00 +29°C° 0 mm 4 mps 686 mmHg 31%
    22:00 +28°C° 0 mm 3 mps 686 mmHg 34%
    23:00 +27°C° 0 mm 2 mps 686 mmHg 36%
    Show more